Volver al catálogo

STARLINK-30861

ActivoComunicacionesVLEO
NORAD 58230·PAYLOAD·🇺🇸 United States

Lanzado Nov 8, 2023 desde Cape Canaveral Space Force Station

Loading…

Próximos Pases (próximas 24 horas)

TLE

ActualizadoSource: CelesTrak SupGP

Época: Sep 15, 2026, 03:06 UTC

1 58230C 23171A   26258.12965278  .00054602  00000+0  13471-2 0  2587
2 58230  42.9886 290.3090 0014365  54.6978 317.1987 15.39549749    11

Sigue STARLINK-30861 en tiempo real con AllMySat

Download on the App Store